Location: Arroyo Retuerta
(40.5469°N, 4.3534°W)
Time: 03:07:13
(UTC+00:00)

Envisat - Pass Details

Date: 25 July 2021
Orbit: 764 x 766 km, 98.2° (Epoch: 22 September)

Event Time Altitude Azimuth Distance (km) Brightness Sun altitude
Rises 04:06:20 0° 37° (NE) 3,240 8.0 -10.7°
Reaches altitude 10° 04:10:41 10° 73° (ENE) 2,306 6.8 -10.1°
Maximum altitude 04:12:03 11° 88° (E) 2,234 6.3 -9.9°
Drops below altitude 10° 04:13:25 10° 104° (ESE) 2,301 6.1 -9.7°
Sets 04:17:43 0° 140° (SE) 3,219 6.3 -9.0°
